Hourly Data Report for September 19, 2017

All times are specified in Local Standard Time (LST). Add 1 hour to adjust for Daylight Saving Time where and when it is observed.

KOUCHIBOUGUAC CS
NEW BRUNSWICK

46°47'00.000" N
65°01'00.000" W
21.00 m
8102328
71670
AKC

Download Data

Hourly Data (September 2017)
Hourly Data Report for September 19, 2017
Temp Definition
°C
Dew Point Temp Definition
°C
Rel Hum Definition
%
Wind Dir Definition
10's deg

Wind Spd Definition
km/h
Visibility Definition
km
Stn Press Definition
kPa
Hmdx Definition


Wind Chill Definition


Weather Definition


TIME
00:00 15.5 15.3 99   0   102.22     LegendNANA
01:00 15.5 15.3 99 0 1   102.22     LegendNANA
02:00 15.7 15.5 99 20 2   102.18     LegendNANA
03:00 16.0 15.8 99 19 2   102.17     LegendNANA
04:00 15.6 15.4 99 18 2   102.17     LegendNANA
05:00 16.1 15.9 99 18 2   102.17     LegendNANA
06:00 16.3 16.0 98 19 2   102.22     LegendNANA
07:00 16.6 16.2 97 19 5   102.23     LegendNANA
08:00 17.4 16.7 96 15 3   102.21     LegendNANA
09:00 18.4 17.3 93 18 5   102.22     LegendNANA
10:00 19.9 17.6 87 18 9   102.21     LegendNANA
11:00 20.8 17.3 80 18 12   102.17 26   LegendNANA
12:00 22.0 17.7 77 19 8   102.11 28   LegendNANA
13:00 23.0 16.5 67 19 11   102.05 28   LegendNANA
14:00 23.2 17.3 70 18 9   101.97 29   LegendNANA
15:00 21.9 17.4 75 16 8   101.94 27   LegendNANA
16:00 21.7 17.7 78 16 8   101.92 27   LegendNANA
17:00 21.4 18.0 81 17 6   101.88 27   LegendNANA
18:00 20.7 17.8 84 17 7   101.87 27   LegendNANA
19:00 18.8 17.2 91   0   101.88     LegendNANA
20:00 18.1 17.4 96 15 5   101.86     LegendNANA
21:00 19.0 17.9 93 15 7   101.85     LegendNANA
22:00 19.0 17.9 93 20 2   101.85     LegendNANA
23:00 18.2 17.3 95   0   101.83     LegendNANA

Notes on Data Quality.

Legend

  • E = Estimated
  • M = Missing
  • NA = Not Available
  • ‡ = Partner data that is not subject to review by the National Climate Archives
Date modified: